Einstein Tanzhen

operational
NORAD ID: 58753 Int'l Des: 2024-007 Owner: CAS Country: CN
LEOCIRCULAR

About Einstein Tanzhen

Description loading...

Live Position

Loading 3D Globe...

Upcoming Passes

Altitude History

Altitude vs Time

uPlot chart will show altitude changes over time

Two-Line Element Set

1 58753U 24007A 26102.90278002 .00002064 00000-0 14389-3 0 9990
2 58753 28.9988 277.9724 0009490 249.1726 110.7856 15.01584331123741
Epoch: Apr 12, 2026 • Age: 8 hours

Current Status

Altitude 562.0 km
Velocity 7.59 km/s
Sub-Earth Point -29.10°S, 91.53°W
Launch Date Jan 9, 2024
Age 2.2 years
Type other

Technical Details

Classification Payload
Mass 1450.00 kg
Dry Mass 1450.00 kg
Total Mass 1450.00 kg
Length 2.80 m
Diameter 2.40 m
Span 14.00 m
Shape Box + 2 pan
Manufacturer CAST
Bus Type EP
Phase Status In Orbit
Owner/State CAS/CN

Large Constellations

Loading constellations...